Hourly Weather Rusocice

Today, 9 May, Sunday

Time Temperature Precipitation Wind Pressure Humidity
00:00 +7°C° 0 mm 3 mps 747 mmHg 61%
01:00 +8°C° 0 mm 3 mps 747 mmHg 57%
02:00 +8°C° 0 mm 3 mps 746 mmHg 58%
03:00 +8°C° 0 mm 3 mps 746 mmHg 59%
04:00 +8°C° 0 mm 3 mps 745 mmHg 59%
05:00 +9°C° 0 mm 3 mps 745 mmHg 59%
06:00 +11°C° 0 mm 4 mps 745 mmHg 59%
07:00 +12°C° 0 mm 4 mps 745 mmHg 58%
08:00 +14°C° 0 mm 4 mps 745 mmHg 54%
09:00 +16°C° 0 mm 5 mps 745 mmHg 50%
10:00 +19°C° 0 mm 5 mps 745 mmHg 47%
11:00 +20°C° 0 mm 5 mps 745 mmHg 46%
12:00 +21°C° 0 mm 6 mps 745 mmHg 45%
13:00 +22°C° 0 mm 6 mps 745 mmHg 43%
14:00 +23°C° 0 mm 5 mps 744 mmHg 45%
15:00 +23°C° 0 mm 5 mps 744 mmHg 46%
16:00 +23°C° 0 mm 5 mps 744 mmHg 48%
17:00 +21°C° 0 mm 4 mps 744 mmHg 55%
18:00 +20°C° 0 mm 4 mps 744 mmHg 62%
19:00 +18°C° 0 mm 4 mps 743 mmHg 69%
20:00 +17°C° 0 mm 4 mps 743 mmHg 70%
21:00 +15°C° 0 mm 4 mps 743 mmHg 71%
22:00 +13°C° 0 mm 3 mps 743 mmHg 73%
23:00 +13°C° 0 mm 3 mps 743 mmHg 75%

Tomorrow, 10 May, Monday

Time Temperature Precipitation Wind Pressure Humidity
00:00 +12°C° 0 mm 3 mps 743 mmHg 77%
01:00 +11°C° 0 mm 3 mps 743 mmHg 79%
02:00 +10°C° 0 mm 2 mps 743 mmHg 80%
03:00 +10°C° 0 mm 2 mps 743 mmHg 81%
04:00 +9°C° 0 mm 2 mps 742 mmHg 82%
05:00 +11°C° 0 mm 3 mps 742 mmHg 75%
06:00 +12°C° 0 mm 3 mps 742 mmHg 69%
07:00 +14°C° 0 mm 4 mps 742 mmHg 63%
08:00 +17°C° 0 mm 4 mps 742 mmHg 59%
09:00 +18°C° 0 mm 4 mps 742 mmHg 55%
10:00 +20°C° 0 mm 4 mps 742 mmHg 51%
11:00 +21°C° 0 mm 4 mps 742 mmHg 50%
12:00 +22°C° 0 mm 4 mps 742 mmHg 48%
13:00 +25°C° 0 mm 4 mps 742 mmHg 47%
14:00 +25°C° 0 mm 4 mps 743 mmHg 48%
15:00 +25°C° 0 mm 4 mps 743 mmHg 50%
16:00 +25°C° 0 mm 4 mps 743 mmHg 51%
17:00 +24°C° 0 mm 3 mps 743 mmHg 59%
18:00 +21°C° 0 mm 3 mps 743 mmHg 67%
19:00 +20°C° 0 mm 2 mps 743 mmHg 74%
20:00 +18°C° 0 mm 2 mps 743 mmHg 78%
21:00 +17°C° 0 mm 2 mps 743 mmHg 81%
22:00 +16°C° 0 mm 2 mps 743 mmHg 85%
23:00 +15°C° 0 mm 2 mps 742 mmHg 87%

Day after tomorrow, 11 May, Tuesday

Time Temperature Precipitation Wind Pressure Humidity
00:00 +15°C° 0 mm 2 mps 742 mmHg 89%
01:00 +14°C° 0 mm 2 mps 742 mmHg 92%
02:00 +14°C° 0 mm 2 mps 741 mmHg 91%
03:00 +13°C° 0 mm 2 mps 741 mmHg 91%
04:00 +13°C° 0 mm 2 mps 741 mmHg 91%
05:00 +15°C° 0 mm 2 mps 741 mmHg 85%
06:00 +16°C° 0 mm 3 mps 740 mmHg 79%
07:00 +17°C° 0 mm 3 mps 740 mmHg 74%
08:00 +19°C° 0 mm 3 mps 740 mmHg 67%
09:00 +21°C° 0 mm 2 mps 740 mmHg 61%
10:00 +23°C° 0 mm 2 mps 740 mmHg 55%
11:00 +24°C° 0 mm 2 mps 740 mmHg 52%
12:00 +25°C° 0 mm 2 mps 739 mmHg 50%
13:00 +26°C° 0 mm 3 mps 739 mmHg 47%
14:00 +26°C° 0 mm 3 mps 739 mmHg 48%
15:00 +26°C° 0 mm 3 mps 739 mmHg 49%
16:00 +26°C° 0 mm 4 mps 739 mmHg 50%
17:00 +25°C° 0 mm 3 mps 739 mmHg 58%
18:00 +22°C° 0 mm 3 mps 739 mmHg 65%
19:00 +21°C° 0 mm 2 mps 739 mmHg 73%
20:00 +20°C° 0 mm 2 mps 739 mmHg 76%
21:00 +19°C° 0 mm 2 mps 739 mmHg 80%
22:00 +18°C° 0 mm 2 mps 739 mmHg 84%
23:00 +17°C° 0 mm 2 mps 738 mmHg 86%

12 May, Wednesday

Time Temperature Precipitation Wind Pressure Humidity
00:00 +16°C° 0 mm 2 mps 738 mmHg 88%
01:00 +15°C° 0 mm 2 mps 738 mmHg 91%
02:00 +15°C° 0 mm 2 mps 738 mmHg 92%
03:00 +15°C° 0 mm 2 mps 738 mmHg 94%
04:00 +14°C° 0 mm 2 mps 738 mmHg 95%
05:00 +14°C° 0 mm 2 mps 738 mmHg 94%
06:00 +15°C° 0 mm 2 mps 738 mmHg 93%
07:00 +15°C° 0 mm 2 mps 738 mmHg 91%
08:00 +15°C° 0 mm 2 mps 739 mmHg 90%
09:00 +15°C° 0 mm 2 mps 739 mmHg 89%
10:00 +15°C° 0 mm 2 mps 739 mmHg 88%
11:00 +15°C° 0 mm 2 mps 739 mmHg 86%
12:00 +16°C° 0 mm 3 mps 739 mmHg 84%
13:00 +16°C° 0 mm 3 mps 739 mmHg 81%
14:00 +16°C° 0.4 mm 3 mps 739 mmHg 83%
15:00 +16°C° 0.4 mm 3 mps 739 mmHg 84%
16:00 +16°C° 0.4 mm 3 mps 739 mmHg 85%
17:00 +14°C° 1.4 mm 3 mps 739 mmHg 89%
18:00 +14°C° 1.4 mm 3 mps 739 mmHg 92%
19:00 +13°C° 1.4 mm 3 mps 739 mmHg 96%
20:00 +13°C° 0.9 mm 3 mps 739 mmHg 96%
21:00 +12°C° 0.9 mm 3 mps 739 mmHg 97%
22:00 +12°C° 0.9 mm 3 mps 739 mmHg 98%
23:00 +12°C° 0.1 mm 3 mps 738 mmHg 98%

13 May, Thursday

Time Temperature Precipitation Wind Pressure Humidity
00:00 +13°C° 0.1 mm 2 mps 738 mmHg 98%
01:00 +13°C° 0.1 mm 2 mps 738 mmHg 97%
02:00 +12°C° 0 mm 2 mps 738 mmHg 97%
03:00 +12°C° 0 mm 2 mps 738 mmHg 97%
04:00 +10°C° 0 mm 2 mps 737 mmHg 96%
05:00 +12°C° 0 mm 2 mps 738 mmHg 93%
06:00 +12°C° 0 mm 2 mps 738 mmHg 90%
07:00 +12°C° 0 mm 2 mps 738 mmHg 88%
08:00 +14°C° 0 mm 2 mps 738 mmHg 79%
09:00 +15°C° 0 mm 2 mps 738 mmHg 71%
10:00 +17°C° 0 mm 2 mps 738 mmHg 62%
11:00 +17°C° 0 mm 2 mps 738 mmHg 59%
12:00 +18°C° 0 mm 2 mps 738 mmHg 56%
13:00 +18°C° 0 mm 2 mps 738 mmHg 53%
14:00 +17°C° 0.1 mm 2 mps 738 mmHg 60%
15:00 +16°C° 0.1 mm 2 mps 738 mmHg 67%
16:00 +16°C° 0.1 mm 2 mps 739 mmHg 74%
17:00 +14°C° 0.1 mm 3 mps 739 mmHg 80%
18:00 +13°C° 0.1 mm 3 mps 739 mmHg 85%
19:00 +12°C° 0.1 mm 3 mps 739 mmHg 90%
20:00 +11°C° 0 mm 3 mps 740 mmHg 92%
21:00 +10°C° 0 mm 3 mps 740 mmHg 94%
22:00 +10°C° 0 mm 4 mps 740 mmHg 97%
23:00 +8°C° 0 mm 4 mps 740 mmHg 97%

14 May, Friday

Time Temperature Precipitation Wind Pressure Humidity
00:00 +9°C° 0 mm 3 mps 741 mmHg 97%
01:00 +9°C° 0 mm 3 mps 741 mmHg 97%
02:00 +9°C° 0 mm 3 mps 741 mmHg 97%
03:00 +9°C° 0 mm 3 mps 741 mmHg 96%
04:00 +9°C° 0 mm 3 mps 741 mmHg 96%
05:00 +9°C° 0 mm 3 mps 741 mmHg 96%
06:00 +9°C° 0 mm 3 mps 742 mmHg 95%
07:00 +9°C° 0 mm 3 mps 742 mmHg 95%
08:00 +9°C° 0 mm 3 mps 742 mmHg 93%
09:00 +10°C° 0 mm 3 mps 743 mmHg 90%
10:00 +10°C° 0 mm 3 mps 743 mmHg 88%
11:00 +11°C° 0 mm 3 mps 743 mmHg 85%
12:00 +11°C° 0 mm 3 mps 743 mmHg 83%
13:00 +12°C° 0 mm 4 mps 744 mmHg 80%
14:00 +12°C° 0 mm 3 mps 744 mmHg 78%
15:00 +12°C° 0 mm 3 mps 744 mmHg 75%
16:00 +13°C° 0 mm 3 mps 744 mmHg 73%
17:00 +12°C° 0 mm 3 mps 744 mmHg 75%
18:00 +13°C° 0 mm 2 mps 744 mmHg 77%
19:00 +12°C° 0 mm 2 mps 744 mmHg 80%
20:00 +12°C° 0 mm 2 mps 745 mmHg 84%
21:00 +10°C° 0 mm 2 mps 745 mmHg 88%
22:00 +9°C° 0 mm 2 mps 745 mmHg 92%
23:00 +9°C° 0 mm 1 mps 745 mmHg 92%
Show more